ES'HAIL 2

Last updated on Sun Jul 06 2025 00:02:46 GMT+0000 (Coordinated Universal Time)

1 43700U 18090A 25186.56993019 .00000160 00000+0 00000+0 0 9991 2 43700 0.0155 65.5472 0002465 71.1828 18.0290 1.00273288 24209
UTC large
Height (km)
Speed (km/s)
/
Latitude / Longitude
Inclination (degrees)
Orbital Period (minutes)
Azimuth
Elevation
Range (km)
Doppler Factor

Next 0 passes for location: London (51.5072 / 0.1276)

Sorry there are no passes over London.